Le nostre stazioni meteo in Italia

Pubblicità
Il mio iltempo24.it
Cagliari/Elmas, Italia (16560): Temperatura & dewpoint: 19.05.2019 08:00:00 - 25.05.2019 08:00:00 (CEST)Cagliari/Elmas, Italia (16560): velocità del vento: 19.05.2019 08:00:00 - 25.05.2019 08:00:00 (CEST)Cagliari/Elmas, Italia (16560): direzione del vento: 19.05.2019 08:00:00 - 25.05.2019 08:00:00 (CEST)Cagliari/Elmas, Italia (16560): reduced air pressure: 19.05.2019 08:00:00 - 25.05.2019 08:00:00 (CEST)Cagliari/Elmas, Italia (16560): visibility: 19.05.2019 08:00:00 - 25.05.2019 08:00:00 (CEST)Cagliari/Elmas, Italia (16560): precipitazioni: 19.05.2019 08:00:00 - 25.05.2019 08:00:00 (CEST)
Data & Tempo tt [°C] td [°C] ff [km/h] ff [kn] dd ppp [hPa] vv [km] rr [mm]
25.05.2019 08:00:00 - - - - - - - -
25.05.2019 07:00:00 14,0 10,0 5 3 NNO - 10 -
25.05.2019 06:00:00 13,0 9,0 4 2 N - 10 -
25.05.2019 05:00:00 13,4 10,0 9 5 NNO 1012,2 10 0,0
25.05.2019 04:00:00 14,0 10,0 9 5 NO - 10 -
25.05.2019 03:00:00 14,0 10,0 9 5 NNO - 10 -
25.05.2019 02:00:00 14,3 10,2 8 4 N 1013,0 10 -
25.05.2019 01:00:00 16,0 11,0 9 5 NO - 10 -
25.05.2019 00:00:00 16,0 11,0 5 3 NNO - 10 -
24.05.2019 23:00:00 17,8 11,6 8 4 NE 1013,8 10 0,0
24.05.2019 22:00:00 19,0 11,0 9 5 S - 10 -
24.05.2019 21:00:00 18,0 13,0 11 6 S - 10 -
24.05.2019 20:00:00 19,1 13,9 13 7 S 1013,1 10 -
24.05.2019 19:00:00 20,0 14,0 15 8 SSE - 10 -
24.05.2019 18:00:00 22,0 12,0 15 8 S - 10 -
24.05.2019 17:00:00 21,2 14,6 21 11 SSE 1013,2 10 0,0
24.05.2019 16:00:00 22,0 15,0 21 11 SSE - 10 -
24.05.2019 15:00:00 22,0 15,0 21 11 SSE - 10 -
24.05.2019 14:00:00 22,6 12,1 18 10 S 1014,5 10 -
24.05.2019 13:00:00 25,0 12,0 18 10 SSO - 10 -
24.05.2019 12:00:00 24,0 10,0 5 3 S - 10 -
24.05.2019 11:00:00 22,5 9,9 5 3 ONO 1015,3 10 0,0
24.05.2019 10:00:00 20,0 11,0 5 3 - - 10 -
24.05.2019 09:00:00 17,0 11,0 8 4 NO - 10 -
24.05.2019 08:00:00 15,4 10,7 9 5 ONO 1016,0 10 -
24.05.2019 07:00:00 12,0 10,0 9 5 NNO - 10 -
24.05.2019 06:00:00 12,0 10,0 13 7 NNO - 10 -
24.05.2019 05:00:00 13,6 11,1 13 7 ONO 1016,1 10 0,0
24.05.2019 04:00:00 13,0 12,0 13 7 NNO - 10 -
24.05.2019 03:00:00 14,0 11,0 13 7 NNO - 10 -
24.05.2019 02:00:00 14,9 12,8 16 9 NO 1016,8 10 -
24.05.2019 01:00:00 15,0 11,0 13 7 NO - 10 -
24.05.2019 00:00:00 16,0 10,0 13 7 NNO - 10 -
23.05.2019 23:00:00 17,0 10,0 15 8 NNO 1017,8 10 0,0
23.05.2019 22:00:00 19,0 11,0 18 10 N - 10 -
23.05.2019 21:00:00 21,0 11,0 18 10 NNO - 10 -
23.05.2019 20:00:00 22,5 10,5 21 11 NNO 1016,8 10 -
23.05.2019 19:00:00 25,0 8,0 24 13 NNO - 10 -
23.05.2019 18:00:00 26,0 7,0 26 14 N - 10 -
23.05.2019 17:00:00 26,6 7,9 18 10 NNO 1016,4 10 0,0
23.05.2019 16:00:00 27,0 8,0 16 9 NNO - 10 -
23.05.2019 15:00:00 26,0 8,0 21 11 NNO - 10 -
23.05.2019 14:00:00 25,5 8,7 21 11 NNO 1017,8 10 -
23.05.2019 13:00:00 25,0 10,0 18 10 NNO - 10 -
23.05.2019 12:00:00 24,0 8,0 22 12 NNO - 10 -
23.05.2019 11:00:00 22,6 8,8 21 11 NO 1019,0 10 0,0
23.05.2019 10:00:00 20,0 13,0 15 8 NNO - 10 -
23.05.2019 09:00:00 18,0 13,0 16 9 NNO - 10 -
23.05.2019 08:00:00 15,2 12,2 9 5 N 1018,8 10 -
23.05.2019 07:00:00 13,0 11,0 9 5 NNO - 10 -
23.05.2019 06:00:00 13,0 12,0 13 7 ONO - 10 -
23.05.2019 05:00:00 12,6 11,6 11 6 NNO 1018,4 10 0,0
23.05.2019 04:00:00 14,0 13,0 15 8 NO - 10 -
23.05.2019 03:00:00 14,0 13,0 13 7 NO - 10 -
23.05.2019 02:00:00 14,6 13,0 13 7 NNO 1018,7 10 -
23.05.2019 01:00:00 15,0 13,0 11 6 NNE - 10 -
23.05.2019 00:00:00 16,0 13,0 13 7 N - 10 -
22.05.2019 23:00:00 16,9 12,0 13 7 NNO 1018,7 10 0,0
22.05.2019 22:00:00 18,0 12,0 16 9 N - 10 -
22.05.2019 21:00:00 20,0 10,0 15 8 NNO - 10 -
22.05.2019 20:00:00 20,7 9,0 18 10 NNO 1017,0 10 -
22.05.2019 19:00:00 23,0 6,0 26 14 NNO - 10 -
22.05.2019 18:00:00 24,0 6,0 31 17 N - 10 -
22.05.2019 17:00:00 22,5 13,1 15 8 SSO 1016,5 10 0,0
22.05.2019 16:00:00 24,0 10,0 15 8 S - 10 -
22.05.2019 15:00:00 23,0 9,0 22 12 S - 10 -
22.05.2019 14:00:00 26,3 6,7 11 6 - 1017,1 10 -
22.05.2019 13:00:00 25,0 7,0 11 6 NO - 10 -
22.05.2019 12:00:00 24,0 7,0 15 8 ONO - 10 -
22.05.2019 11:00:00 22,7 6,7 15 8 NNO 1017,7 10 0,0
22.05.2019 10:00:00 20,0 8,0 11 6 ONO - 10 -
22.05.2019 09:00:00 17,0 9,0 9 5 NNO - 10 -
22.05.2019 08:00:00 12,7 9,1 9 5 NNO 1017,9 10 -
22.05.2019 07:00:00 10,0 9,0 8 4 NO - 10 -
22.05.2019 06:00:00 10,0 8,0 5 3 NO - 10 -
22.05.2019 05:00:00 10,5 9,2 13 7 NNO 1017,2 10 0,0
22.05.2019 04:00:00 11,0 10,0 11 6 NNO - 10 -
22.05.2019 03:00:00 12,0 11,0 13 7 NO - 10 -
22.05.2019 02:00:00 13,4 11,4 11 6 NO 1017,6 10 -
22.05.2019 01:00:00 14,0 11,0 13 7 NO - 10 -
22.05.2019 00:00:00 14,0 9,0 9 5 NNO - 10 -
21.05.2019 23:00:00 15,6 9,5 16 9 N 1017,9 10 0,0
21.05.2019 22:00:00 17,0 9,0 11 6 N - 10 -
21.05.2019 21:00:00 19,0 8,0 15 8 N - 10 -
21.05.2019 20:00:00 20,9 7,1 24 13 NNO 1016,0 10 -
21.05.2019 19:00:00 23,0 7,0 22 12 NNO - 10 -
21.05.2019 18:00:00 25,0 6,0 15 8 NNO - 10 -
21.05.2019 17:00:00 24,9 5,1 11 6 - 1015,5 10 0,0
21.05.2019 16:00:00 21,0 14,0 18 10 ESE - 10 -
21.05.2019 15:00:00 22,0 14,0 18 10 SSE - 10 -
21.05.2019 14:00:00 23,1 12,8 16 9 SE 1015,7 10 -
21.05.2019 13:00:00 22,0 13,0 16 9 SE - 10 -
21.05.2019 12:00:00 21,0 14,0 15 8 SSE - 10 -
21.05.2019 11:00:00 20,1 12,1 11 6 SSE 1016,5 10 0,0
21.05.2019 10:00:00 18,0 13,0 8 4 S - 10 -
21.05.2019 09:00:00 16,0 13,0 8 4 SO - 10 -
21.05.2019 08:00:00 14,1 12,3 5 3 NO 1015,9 10 -
21.05.2019 07:00:00 11,0 10,0 4 2 - - 10 -
21.05.2019 06:00:00 11,0 9,0 2 1 - - 10 -
21.05.2019 05:00:00 11,0 9,5 8 4 NNO 1015,0 10 0,0
21.05.2019 04:00:00 - - - - - - - -
21.05.2019 03:00:00 13,0 10,0 8 4 NNE - 10 -
21.05.2019 02:00:00 13,0 10,5 4 2 - 1015,4 10 -
21.05.2019 01:00:00 13,0 10,0 9 5 NNE - 10 -
21.05.2019 00:00:00 14,0 10,0 5 3 NNE - 10 -
20.05.2019 23:00:00 14,3 9,7 11 6 NNO 1015,7 10 0,0
20.05.2019 22:00:00 16,0 9,0 11 6 NNO - 10 -
20.05.2019 21:00:00 17,0 10,0 18 10 ONO - 10 -
20.05.2019 20:00:00 18,3 9,7 24 13 ONO 1014,1 10 -
20.05.2019 19:00:00 19,0 9,0 31 17 O - 10 -
20.05.2019 18:00:00 20,0 9,0 29 16 O - 10 -
20.05.2019 17:00:00 20,9 8,5 28 15 O 1013,4 10 0,0
20.05.2019 16:00:00 20,0 9,0 29 16 ONO - 10 -
20.05.2019 15:00:00 20,0 9,0 31 17 O - 10 -
20.05.2019 14:00:00 19,9 9,5 28 15 ONO 1012,8 10 -
20.05.2019 13:00:00 19,0 8,0 29 16 NO - 10 -
20.05.2019 12:00:00 17,0 10,0 18 10 ONO - 10 -
20.05.2019 11:00:00 17,5 9,7 22 12 ONO 1012,3 10 0,0
20.05.2019 10:00:00 17,0 11,0 11 6 NO - 10 -
20.05.2019 09:00:00 15,0 11,0 13 7 NO - 10 -
20.05.2019 08:00:00 13,5 10,9 16 9 NO 1011,3 10 -
20.05.2019 07:00:00 13,0 11,0 9 5 NO - 10 -
20.05.2019 06:00:00 13,0 10,0 11 6 NO - 10 -
20.05.2019 05:00:00 12,9 9,6 9 5 NO 1010,2 10 0,0
20.05.2019 04:00:00 13,0 10,0 9 5 ONO - 10 -
20.05.2019 03:00:00 14,0 9,0 15 8 O - 10 -
20.05.2019 02:00:00 14,6 8,8 11 6 ONO 1010,5 10 -
20.05.2019 01:00:00 15,0 10,0 11 6 O - 10 -
20.05.2019 00:00:00 15,0 10,0 5 3 NNO - 10 -
19.05.2019 23:00:00 15,0 10,4 5 3 N 1011,0 10 0,0
19.05.2019 22:00:00 16,0 10,0 21 11 O - 10 -
19.05.2019 21:00:00 17,0 9,0 18 10 O - 10 -
19.05.2019 20:00:00 17,9 9,4 18 10 ONO 1009,5 10 -
19.05.2019 19:00:00 20,0 9,0 22 12 ONO - 10 -
19.05.2019 18:00:00 - - - - - - - -
19.05.2019 17:00:00 21,0 5,9 26 14 ONO 1008,7 10 0,0
19.05.2019 16:00:00 22,0 8,0 16 9 O - 10 -
19.05.2019 15:00:00 22,0 6,0 18 10 O - 10 -
19.05.2019 14:00:00 21,0 8,4 18 10 O 1008,2 10 -
19.05.2019 13:00:00 19,0 9,0 11 6 NO - 10 -
19.05.2019 12:00:00 19,0 8,0 21 11 O - 10 -
19.05.2019 11:00:00 19,7 7,7 18 10 ONO 1009,0 10 0,0
19.05.2019 10:00:00 17,0 8,0 13 7 NO - 10 -
19.05.2019 09:00:00 16,0 10,0 13 7 NO - 10 -
19.05.2019 08:00:00 14,2 9,7 9 5 NNO 1008,5 10 -

tt = Temperatura
td = dewpoint
ff = velocità del vento
dd = direzione del vento
ppp = reduced air pressure
vv = visibility
rr = precipitazioni

Stazioni seguenti

WeatherPro
AMSI
MeteoEarth